Regional Weather Roundup
Issued by NWS Cleveland, OH

Home | Current Version | Previous Version | Graphics & Text | Print | Product List | Glossary On
Versions: 1 2 3 4 5 6 7 8 9 10 11 12 13 14 15 16 17 18 19 20 21 22 23 24 25 26 27 28 29 30 31 32 33 34 35 36 37 38 39 40 41 42 43 44 45 46 47 48 49 50
000
ASUS41 KCLE 010500
RWRCLE
OHIO REGIONAL WEATHER ROUNDUP
NATIONAL WEATHER SERVICE WILMINGTON, OH
1200 AM EST SUN FEB 01 2015

NOTE: "FAIR" INDICATES FEW OR NO CLOUDS BELOW 12,000 FEET WITH NO
SIGNIFICANT WEATHER AND/OR OBSTRUCTIONS TO VISIBILITY.

OHZ001>008-015>018-024>027-034-035-043-044-010600-
   NORTHWEST OHIO

CITY           SKY/WX    TMP DP  RH WIND       PRES   REMARKS
DEFIANCE       LGT SNOW  32  30  92 SW3       30.18S FOG
FINDLAY        FLURRIES  34  27  75 SW8       30.17S WCI  27
TOLEDO EXPRESS LGT SNOW  31  27  85 SW6       30.17S FOG     WCI  25
TOLEDO EXEC    CLOUDY    32  26  78 SW5       30.18F WCI  27
LIMA           LGT SNOW  34  29  82 SW9       30.17S WCI  27
$$

OHZ009>014-019>023-028>033-038-089-010600-
   NORTHEAST OHIO

CITY           SKY/WX    TMP DP  RH WIND       PRES   REMARKS
CLE-HOPKINS    CLOUDY    30  20  66 SW7       30.21S WCI  23
CLE-LAKEFRONT  CLOUDY    33  22  63 SW12      30.18F WCI  24
CUY CO. ARPT   NOT AVBL
LORAIN-ELYRIA  CLOUDY    30  22  72 SW8       30.18F WCI  22
ASHTABULA      CLOUDY    27  18  69 S6        30.19S WCI  20
AKRON-CANTON   CLOUDY    29  20  69 SW7       30.18F WCI  22
WOOSTER        NOT AVBL
MANSFIELD      CLOUDY    32  22  66 SW8       30.16F WCI  25
YOUNGSTOWN     CLOUDY    28  19  69 SW7       30.18S WCI  21
$$

OHZ042-051>053-060>062-070>072-077>081-010600-
  SOUTHWEST OHIO

CITY           SKY/WX    TMP DP  RH WIND       PRES   REMARKS
CINC-COVINGTON LGT RAIN  34  28  79 CALM      30.21F
CINC-LUNKEN    MIX PCPN  32  31  96 CALM      30.25F
HAMILTON       LGT RAIN  34  30  85 CALM      30.24F
DAYTON         NOT AVBL
WRIGHT-PAT AFB NOT AVBL
DAYTON GENERAL CLOUDY    34  28  79 SW7       30.21S WCI  28
WILMINGTON     CLOUDY    33  26  75 SW8       30.21F WCI  26
$$

OHZ036-037-039>041-045>050-054>059-063>069-073>076-082>088-010600-
  CENTRAL AND SOUTHEAST OHIO

CITY           SKY/WX    TMP DP  RH WIND       PRES   REMARKS
COLUMBUS       FLURRIES  33  23  66 SW10      30.21S WCI  25
OSU AIRPORT    LGT SNOW  32  27  81 SW9       30.20S WCI  24
BOLTON FIELD   NOT AVBL
RICKENBACK AFB NOT AVBL
NEWARK         CLOUDY    33  22  63 S7        30.20F WCI  27
MARION         CLOUDY    32  24  72 S8        30.18F WCI  25
LANCASTER      FLURRIES  34  23  64 SW5       30.22F WCI  30
ZANESVILLE     CLOUDY    29  19  66 CALM      30.21F
NEW PHILLY     CLOUDY    27  18  69 SE6       30.22F WCI  20
$$


USA.gov is the U.S. government's official web portal to all federal, state and local government web resources and services.